Weather History for Idaho Falls, ID

Change the Weather History Date:

Thursday, May 23, 2013

  Actual Average Record
Temperature  
Mean Temperature 51 °F 55 °F  
Max Temperature 64 °F 69 °F 88 °F (1979)
Min Temperature 38 °F 41 °F 25 °F (1966)
Degree Days  
Heating Degree Days 14 10  
Month to date heating degree days 222 304  
Since 1 July heating degree days 7331 7617  
Cooling Degree Days 0 0  
Month to date cooling degree days 4 0  
Year to date cooling degree days 4 0  
Growing Degree Days 2 (Base 50)    
Moisture  
Dew Point 30 °F    
Average Humidity 52    
Maximum Humidity 76    
Minimum Humidity 28    
Precipitation  
Precipitation 0.00 in 0.05 in 0.45 in (1953)
Month to date precipitation 0.35 1.10  
Year to date precipitation 1.73 4.45  
Sea Level Pressure  
Sea Level Pressure 29.84 in    
Wind  
Wind Speed 8 mph (WNW)    
Max Wind Speed 28 mph    
Max Gust Speed 36 mph    
Visibility 10 miles    
Events      
T = Trace of Precipitation, MM = Missing Value Source: NWS Daily Summary

Daily Weather History Graph

Daily Weather History Graph

Search for Another Location

Airport:

Trip Planner

Search our weather history database for the weather conditions in past years. The results will help you decide how hot, cold, wet, or windy it might be!

Date:

Astronomy

May. 23, 2013 Rise Set
Actual Time 5:55 AM MDT 8:54 PM MDT
Civil Twilight 5:21 AM MDT 9:28 PM MDT
Nautical Twilight 4:38 AM MDT 10:12 PM MDT
Astronomical Twilight 3:47 AM MDT 11:03 PM MDT
Moon 7:29 PM MDT (5/23) 4:46 AM MDT (5/23)
Length of Visible Light 16h 07m
Length of Day
14h 59m
Waxing Gibbous, 97% of the Moon is Illuminated
May 23
Waxing Gibbous
May 24
Full
May 31
Last Quarter
Jun 8
New
Jun 16
First Quarter

Hourly Weather History & Observations

Time (MDT) Temp. Windchill Dew Point Humidity Pressure Visibility Wind Dir Wind Speed Gust Speed Precip Events Conditions
12:53 AM 42.1 °F 35.7 °F 30.9 °F 65% 29.88 in 10.0 mi West 11.5 mph - N/A   Partly Cloudy
1:53 AM 41.0 °F 35.2 °F 30.9 °F 67% 29.89 in 10.0 mi WSW 9.2 mph - N/A   Overcast
2:53 AM 39.9 °F 33.9 °F 32.0 °F 73% 29.89 in 10.0 mi South 9.2 mph - N/A   Mostly Cloudy
3:53 AM 39.9 °F 34.5 °F 30.0 °F 68% 29.89 in 10.0 mi South 8.1 mph - N/A   Mostly Cloudy
4:53 AM 39.0 °F 36.8 °F 30.9 °F 73% 29.90 in 10.0 mi South 3.5 mph - N/A   Overcast
5:53 AM 39.9 °F 37.8 °F 30.9 °F 70% 29.89 in 10.0 mi West 3.5 mph - N/A   Overcast
6:53 AM 41.0 °F 38.0 °F 30.0 °F 65% 29.89 in 10.0 mi East 4.6 mph - N/A   Overcast
7:53 AM 42.1 °F 40.2 °F 28.9 °F 60% 29.89 in 10.0 mi North 3.5 mph - N/A   Scattered Clouds
8:53 AM 45.0 °F 41.8 °F 30.0 °F 56% 29.88 in 10.0 mi NNE 5.8 mph - N/A   Clear
9:53 AM 48.9 °F - 30.0 °F 48% 29.86 in 10.0 mi NNE 6.9 mph - N/A   Clear
10:53 AM 52.0 °F - 30.0 °F 43% 29.85 in 10.0 mi NE 6.9 mph - N/A   Clear
11:53 AM 53.1 °F - 33.1 °F 47% 29.84 in 10.0 mi North 9.2 mph - N/A   Clear
12:53 PM 54.0 °F - 33.1 °F 45% 29.83 in 10.0 mi North 8.1 mph 16.1 mph N/A   Clear
1:53 PM 57.9 °F - 30.0 °F 35% 29.79 in 10.0 mi NNW 8.1 mph - N/A   Clear
2:53 PM 59.0 °F - 28.9 °F 32% 29.78 in 10.0 mi Variable 4.6 mph - N/A   Clear
3:53 PM 60.1 °F - 30.9 °F 33% 29.75 in 10.0 mi NW 6.9 mph - N/A   Clear
4:53 PM 63.0 °F - 30.0 °F 29% 29.74 in 10.0 mi North 3.5 mph - N/A   Clear
5:53 PM 64.0 °F - 30.9 °F 29% 29.74 in 10.0 mi Calm Calm - N/A   Clear
6:53 PM 62.1 °F - 33.1 °F 34% 29.76 in 10.0 mi WSW 15.0 mph - N/A   Partly Cloudy
7:53 PM 55.9 °F - 28.0 °F 34% 29.82 in 10.0 mi West 18.4 mph 31.1 mph N/A   Clear
8:53 PM 53.1 °F - 26.1 °F 35% 29.83 in 10.0 mi West 13.8 mph - N/A   Mostly Cloudy
9:53 PM 52.0 °F - 27.0 °F 38% 29.87 in 10.0 mi West 6.9 mph - N/A   Overcast
10:53 PM 52.0 °F - 28.9 °F 41% 29.91 in 10.0 mi South 13.8 mph - N/A   Overcast
11:53 PM 51.1 °F - 27.0 °F 39% 29.90 in 10.0 mi SSE 12.7 mph - N/A   Overcast